Temp
-12 -12 -11 -11 -10 -12 -12 -11 -11 -10 -11 -11 -11 -11 -11 -11 -11 -11 -11 -11 -11 -11 -11 -11 -11 -11 -11 -11 -11 -11 -11 -11 -11 -11 -11 -11 -11 -11 -11 -11 -11 -11 -11 -11
-13 -11 -12 -12 -11 -12 -12 -11 -12 -12 -12 -12 -11 -11 -11 -11 -11 -11 -11 -11 -11 -11 -11 -11 -11 -11 -11 -11 -11 -11 -11 -11 -11 -11 -11 -11 -11 -11 -11 -11 -12 -12 -12 -12
-12 -12 -11 -12 -12 -12 -12 -11 -12 -12 -12 -12 -12 -11 -11 -11 -11 -11 -11 -11 -11 -11 -11 -11 -11 -11 -11 -11 -11 -11 -11 -11 -11 -11 -11 -11 -11 -11 -11 -12 -12 -12 -12 -12
-13 -13 -12 -12 -12 -12 -12 -12 -12 -12 -13 -12 -12 -10 -11 -11 -11 -11 -11 -11 -11 -11 -11 -11 -12 -12 -11 -11 -11 -11 -11 -11 -11 -11 -11 -11 -11 -11 -11 -11 -12 -12 -13 -13
-13 -13 -12 -12 -12 -12 -12 -12 -12 -12 -12 -12 -12 -11 -11 -10 -11 -11 -11 -11 -11 -11 -12 -12 -12 -12 -12 -12 -12 -11 -11 -11 -11 -11 -11 -11 -11 -11 -12 -12 -12 -13 -13 -13
-13 -13 -13 -13 -12 -12 -12 -13 -13 -13 -13 -13 -12 -11 -10 -10 -11 -11 -11 -11 -11 -11 -12 -12 -12 -12 -11 -12 -11 -11 -11 -12 -12 -11 -11 -11 -12 -12 -12 -12 -13 -13 -13 -13
-14 -13 -13 -13 -13 -12 -12 -12 -13 -13 -13 -11 -11 -11 -9 -11 -11 -11 -11 -11 -11 -12 -12 -12 -12 -12 -11 -11 -11 -11 -11 -11 -12 -12 -12 -12 -12 -12 -12 -13 -13 -13 -14 -14
-14 -14 -13 -13 -13 -12 -13 -13 -12 -12 -11 -10 -11 -10 -9 -10 -11 -12 -12 -12 -12 -12 -12 -12 -12 -12 -12 -11 -11 -11 -12 -12 -12 -12 -12 -12 -12 -13 -13 -13 -14 -14 -14 -14
-14 -14 -14 -13 -13 -13 -13 -13 -13 -12 -12 -12 -11 -10 -10 -10 -11 -12 -12 -12 -12 -12 -13 -13 -12 -12 -12 -12 -12 -12 -12 -12 -12 -12 -12 -13 -13 -13 -14 -14 -14 -14 -15 -15
-15 -15 -14 -14 -14 -14 -14 -14 -13 -13 -13 -12 -11 -10 -11 -11 -11 -12 -12 -12 -13 -13 -12 -12 -12 -12 -12 -12 -12 -12 -12 -13 -13 -13 -13 -13 -13 -14 -14 -15 -15 -15 -15 -15
-16 -15 -15 -15 -14 -14 -14 -14 -14 -14 -13 -13 -12 -11 -11 -11 -11 -12 -12 -13 -12 -12 -12 -12 -12 -12 -12 -12 -13 -13 -13 -13 -13 -13 -13 -13 -14 -14 -15 -15 -15 -15 -16 -16
-16 -16 -16 -15 -15 -14 -14 -14 -14 -14 -13 -13 -13 -12 -11 -11 -11 -12 -12 -12 -13 -13 -13 -13 -13 -13 -12 -13 -13 -13 -13 -13 -13 -13 -14 -14 -15 -15 -15 -15 -16 -16 -16 -17
-16 -16 -16 -16 -15 -15 -15 -14 -14 -14 -14 -13 -14 -11 -12 -12 -12 -13 -13 -13 -12 -13 -13 -13 -13 -13 -13 -13 -13 -13 -13 -13 -13 -13 -14 -14 -15 -15 -16 -16 -16 -17 -17 -18
-16 -16 -16 -16 -15 -15 -15 -15 -15 -15 -14 -13 -12 -12 -12 -13 -14 -14 -13 -13 -13 -13 -14 -13 -13 -13 -13 -14 -13 -13 -13 -13 -14 -14 -15 -15 -16 -16 -16 -17 -17 -18 -18 -18
-17 -16 -16 -16 -16 -16 -15 -15 -15 -14 -14 -14 -13 -13 -13 -14 -15 -15 -14 -14 -14 -14 -14 -14 -14 -13 -13 -14 -14 -14 -14 -14 -14 -15 -15 -16 -16 -17 -17 -18 -18 -18 -18 -18
-17 -17 -17 -17 -17 -16 -16 -15 -15 -14 -15 -14 -13 -13 -14 -15 -15 -15 -14 -14 -14 -14 -14 -14 -13 -13 -14 -14 -14 -14 -14 -14 -15 -16 -16 -17 -17 -17 -17 -17 -18 -18 -18 -18
-17 -18 -17 -17 -17 -16 -15 -14 -14 -14 -14 -14 -13 -13 -14 -15 -15 -15 -15 -14 -14 -15 -15 -14 -14 -14 -15 -15 -15 -15 -15 -16 -17 -17 -17 -17 -17 -17 -18 -18 -18 -18 -18 -19
-17 -17 -18 -17 -17 -16 -15 -15 -15 -15 -14 -14 -14 -14 -14 -15 -16 -15 -15 -14 -14 -15 -15 -14 -15 -15 -15 -15 -16 -16 -16 -16 -17 -17 -17 -17 -18 -17 -18 -18 -18 -18 -19 -19
-19 -19 -19 -18 -18 -17 -17 -16 -16 -16 -15 -14 -14 -14 -14 -15 -15 -14 -15 -14 -15 -15 -15 -16 -16 -15 -15 -17 -17 -17 -16 -16 -17 -17 -17 -18 -18 -18 -18 -19 -19 -19 -19 -20
-19 -19 -19 -19 -18 -17 -17 -17 -17 -17 -16 -16 -16 -16 -16 -16 -14 -15 -17 -15 -15 -14 -15 -15 -15 -15 -16 -17 -16 -16 -17 -17 -18 -18 -18 -18 -18 -19 -19 -19 -19 -20 -20 -20
-20 -20 -20 -19 -18 -18 -18 -18 -18 -18 -17 -18 -17 -16 -16 -16 -16 -16 -16 -15 -14 -15 -16 -16 -16 -16 -16 -17 -17 -17 -17 -18 -18 -18 -18 -19 -19 -19 -19 -19 -20 -20 -20 -21
-20 -20 -20 -20 -19 -18 -18 -18 -18 -18 -18 -18 -18 -17 -16 -17 -16 -16 -17 -16 -16 -16 -17 -17 -17 -17 -17 -17 -17 -17 -18 -18 -18 -18 -19 -19 -19 -19 -20 -20 -20 -20 -20 -20
-21 -21 -21 -21 -20 -19 -19 -18 -18 -18 -18 -18 -18 -18 -17 -17 -17 -17 -17 -17 -17 -17 -17 -17 -17 -17 -17 -17 -17 -18 -18 -18 -18 -19 -19 -19 -19 -19 -20 -20 -20 -20 -21 -21
-22 -22 -21 -21 -21 -20 -20 -19 -19 -18 -19 -18 -18 -18 -18 -18 -17 -17 -17 -18 -18 -17 -18 -17 -17 -17 -17 -18 -18 -18 -18 -18 -19 -19 -19 -19 -20 -20 -20 -20 -21 -21 -21 -21
-23 -23 -22 -22 -21 -21 -21 -21 -19 -20 -20 -19 -19 -19 -19 -18 -18 -18 -18 -18 -18 -18 -18 -18 -18 -18 -18 -18 -19 -19 -19 -19 -19 -20 -20 -20 -20 -21 -21 -21 -21 -21 -21 -22
-25 -24 -23 -22 -23 -22 -22 -22 -21 -21 -21 -20 -20 -20 -19 -19 -19 -18 -18 -18 -18 -18 -18 -18 -18 -19 -19 -19 -19 -20 -20 -20 -20 -20 -21 -21 -21 -21 -21 -21 -21 -22 -22 -22
Height
5701 5709 5716 5728 5738 5748 5757 5763 5774 5782 5785 5791 5798 5806 5809 5812 5815 5818 5823 5827 5830 5834 5835 5837 5839 5839 5840 5840 5840 5840 5840 5840 5840 5840 5839 5837 5835 5832 5830 5828 5825 5822 5818 5814
5696 5702 5712 5721 5732 5743 5748 5756 5765 5774 5780 5784 5789 5798 5801 5805 5810 5813 5816 5820 5824 5828 5831 5832 5834 5835 5835 5835 5835 5835 5834 5834 5834 5834 5832 5831 5828 5825 5823 5820 5817 5814 5810 5807
5691 5696 5704 5713 5720 5729 5742 5752 5759 5768 5774 5778 5783 5788 5792 5799 5804 5806 5810 5814 5818 5823 5824 5826 5828 5829 5829 5830 5829 5829 5829 5829 5828 5827 5825 5823 5821 5818 5816 5813 5809 5806 5803 5799
5682 5692 5699 5707 5716 5725 5735 5744 5751 5759 5766 5770 5777 5779 5784 5792 5797 5799 5804 5808 5813 5816 5818 5820 5821 5822 5822 5823 5823 5822 5821 5821 5820 5819 5818 5816 5813 5811 5808 5805 5801 5798 5795 5791
5678 5686 5694 5703 5710 5716 5727 5736 5744 5752 5758 5762 5767 5770 5778 5783 5788 5793 5800 5803 5805 5809 5811 5813 5814 5815 5816 5816 5816 5815 5814 5813 5812 5812 5811 5808 5806 5803 5800 5797 5794 5791 5787 5784
5672 5681 5688 5695 5701 5707 5719 5728 5736 5742 5748 5751 5760 5762 5771 5775 5782 5788 5791 5793 5797 5800 5803 5805 5806 5807 5808 5808 5809 5809 5808 5806 5805 5805 5803 5801 5798 5796 5792 5789 5786 5783 5779 5775
5665 5674 5682 5689 5693 5701 5710 5717 5724 5732 5737 5743 5751 5755 5761 5769 5774 5779 5783 5787 5791 5794 5795 5796 5798 5800 5801 5802 5802 5802 5802 5801 5800 5798 5796 5793 5790 5787 5784 5781 5778 5774 5771 5767
5661 5669 5676 5683 5691 5698 5704 5711 5715 5722 5729 5735 5742 5744 5750 5763 5768 5774 5778 5781 5785 5786 5787 5788 5790 5793 5794 5794 5795 5794 5793 5793 5791 5789 5787 5785 5782 5779 5776 5773 5770 5766 5763 5759
5656 5663 5671 5679 5685 5693 5697 5703 5711 5718 5724 5730 5736 5741 5747 5756 5763 5769 5773 5775 5777 5778 5780 5782 5783 5784 5785 5786 5786 5786 5785 5784 5782 5781 5779 5776 5773 5770 5767 5764 5761 5758 5755 5751
5652 5656 5664 5672 5679 5685 5692 5702 5704 5708 5715 5721 5727 5734 5741 5749 5756 5759 5764 5768 5769 5771 5773 5774 5775 5775 5776 5777 5778 5777 5777 5776 5774 5772 5770 5767 5763 5760 5757 5755 5753 5750 5746 5743
5648 5653 5660 5665 5670 5678 5685 5689 5696 5703 5710 5715 5722 5730 5737 5740 5746 5750 5755 5759 5762 5764 5765 5765 5766 5767 5768 5768 5768 5768 5768 5767 5765 5763 5759 5756 5753 5750 5748 5746 5743 5739 5736 5732
5642 5647 5653 5659 5663 5671 5677 5682 5689 5694 5705 5711 5718 5726 5730 5735 5739 5742 5746 5749 5751 5753 5754 5756 5757 5759 5759 5758 5758 5759 5759 5757 5754 5751 5747 5744 5742 5740 5737 5734 5732 5729 5726 5723
5635 5640 5645 5653 5657 5662 5669 5677 5683 5691 5695 5701 5709 5718 5721 5724 5727 5730 5733 5737 5740 5743 5745 5746 5748 5749 5749 5749 5750 5750 5747 5745 5742 5739 5737 5735 5733 5730 5728 5725 5721 5719 5717 5715
5625 5632 5639 5646 5653 5658 5663 5669 5675 5681 5687 5692 5699 5705 5709 5715 5717 5719 5722 5725 5727 5730 5733 5736 5738 5738 5739 5740 5739 5737 5735 5732 5731 5729 5727 5725 5722 5721 5718 5715 5713 5711 5709 5705
5618 5625 5632 5638 5643 5649 5653 5659 5664 5672 5678 5681 5693 5695 5699 5700 5704 5706 5709 5712 5716 5719 5723 5725 5726 5727 5728 5728 5726 5725 5722 5720 5719 5718 5717 5715 5714 5712 5709 5707 5706 5704 5701 5697
5612 5619 5625 5631 5635 5641 5645 5651 5657 5661 5664 5669 5675 5684 5688 5688 5693 5697 5699 5703 5707 5710 5711 5711 5714 5716 5715 5713 5712 5711 5709 5709 5709 5709 5706 5706 5705 5702 5701 5699 5697 5694 5691 5688
5606 5612 5617 5622 5627 5630 5639 5648 5651 5656 5660 5665 5668 5681 5680 5681 5682 5687 5690 5692 5694 5695 5696 5700 5701 5702 5701 5699 5699 5699 5698 5699 5699 5698 5697 5697 5696 5694 5693 5691 5689 5686 5683 5680
5600 5605 5608 5614 5617 5623 5635 5636 5640 5645 5650 5655 5659 5664 5665 5668 5669 5672 5675 5679 5681 5683 5687 5687 5687 5688 5688 5688 5689 5688 5689 5689 5690 5690 5689 5687 5687 5687 5685 5683 5680 5677 5675 5672
5594 5597 5601 5605 5610 5619 5625 5629 5631 5634 5643 5645 5649 5650 5652 5653 5658 5666 5666 5670 5673 5673 5673 5674 5675 5676 5676 5678 5679 5681 5684 5684 5683 5682 5681 5681 5680 5680 5678 5675 5672 5669 5667 5664
5587 5591 5594 5597 5602 5610 5614 5618 5621 5624 5634 5634 5637 5641 5643 5643 5650 5660 5657 5658 5660 5662 5663 5664 5665 5667 5669 5671 5673 5675 5674 5675 5675 5674 5673 5673 5673 5671 5669 5665 5663 5661 5659 5656
5579 5582 5584 5589 5593 5602 5607 5610 5613 5619 5627 5622 5626 5631 5634 5638 5641 5642 5643 5648 5652 5653 5656 5657 5658 5660 5664 5666 5666 5667 5667 5667 5667 5666 5665 5665 5664 5663 5659 5656 5654 5652 5648 5645
5569 5573 5577 5582 5587 5593 5596 5599 5605 5609 5611 5613 5618 5621 5624 5628 5632 5635 5637 5640 5644 5645 5649 5652 5654 5656 5659 5659 5660 5660 5660 5660 5659 5658 5657 5656 5655 5652 5650 5648 5644 5639 5637 5633
5564 5565 5568 5573 5579 5583 5587 5591 5595 5598 5603 5606 5609 5612 5617 5620 5623 5627 5630 5633 5637 5638 5642 5644 5646 5649 5649 5651 5652 5651 5650 5651 5650 5649 5647 5646 5644 5643 5640 5637 5634 5630 5625 5620
5550 5553 5558 5562 5570 5573 5577 5580 5584 5587 5591 5596 5602 5604 5609 5612 5616 5620 5621 5624 5625 5629 5634 5637 5638 5640 5641 5642 5643 5642 5642 5641 5641 5640 5637 5635 5633 5630 5628 5625 5622 5619 5613 5609
5537 5540 5549 5555 5560 5559 5562 5568 5575 5577 5581 5586 5592 5594 5599 5604 5609 5613 5615 5618 5619 5622 5626 5627 5629 5631 5631 5631 5634 5633 5633 5631 5630 5629 5627 5625 5623 5621 5618 5615 5611 5606 5600 5594
5527 5533 5536 5545 5542 5542 5549 5556 5563 5567 5570 5575 5581 5586 5591 5595 5600 5603 5606 5608 5610 5612 5615 5618 5619 5622 5621 5620 5622 5622 5622 5621 5619 5617 5616 5614 5612 5608 5605 5602 5595 5589 5583 5578
Wind_Speed
64 67 67 65 62 58 50 50 55 49 42 39 37 37 35 36 36 34 29 29 27 26 27 24 25 25 25 24 24 24 24 26 28 31 33 34 35 32 31 31 34 36 35 34
58 58 67 63 65 59 53 49 50 47 47 45 41 37 39 38 35 34 34 33 31 30 28 28 27 26 26 26 26 28 30 32 34 32 32 33 31 30 31 35 38 37 36 36
54 55 66 77 62 66 64 50 44 46 45 45 42 42 41 39 38 36 36 33 31 27 27 27 27 27 28 29 31 35 37 37 34 33 31 30 31 33 36 38 39 38 38 38
51 55 59 64 61 60 59 51 50 48 48 50 48 46 46 41 38 35 34 32 29 29 28 27 29 32 34 32 32 32 31 31 31 28 29 32 35 36 38 40 41 40 39 39
48 49 58 62 65 64 61 55 52 50 51 54 51 52 45 44 41 38 32 32 33 32 31 30 30 29 31 30 31 31 29 26 26 28 31 35 37 39 41 42 41 40 40 41
47 48 57 61 66 63 61 59 58 56 56 56 52 51 47 47 40 36 37 37 35 33 32 32 32 32 31 32 32 31 30 29 30 31 34 36 39 41 42 42 42 41 42 43
48 48 53 56 60 64 65 67 64 62 60 58 54 53 47 47 43 39 39 39 37 36 35 36 34 33 34 35 35 34 34 34 34 35 37 40 43 44 45 45 44 45 45 46
44 46 43 46 51 57 66 69 66 65 60 59 56 56 54 46 42 40 38 37 37 38 39 37 37 38 38 37 37 36 36 36 38 39 41 44 47 48 48 47 46 46 47 48
42 43 40 47 49 52 62 67 64 61 61 62 59 57 55 47 43 39 38 38 40 41 41 40 41 40 37 36 36 37 38 39 41 43 44 47 50 49 46 46 47 47 47 48
39 38 37 43 44 50 51 57 63 60 61 62 58 55 54 48 45 43 41 41 42 44 44 43 41 39 37 36 38 40 41 42 45 46 49 52 49 46 45 45 45 46 48 49
31 35 40 40 43 39 53 55 59 58 60 60 58 56 52 51 49 45 43 41 41 44 45 44 42 39 37 40 41 42 43 44 46 50 54 51 47 45 44 44 46 47 48 48
39 31 36 34 39 42 43 51 48 46 50 55 57 53 51 49 49 44 42 43 42 45 45 44 42 39 39 42 43 43 44 46 49 53 47 45 43 42 42 44 46 47 45 42
37 42 41 40 34 35 41 47 44 41 42 42 45 47 47 48 47 45 44 45 45 43 43 42 43 42 43 43 43 44 46 48 50 45 43 42 41 42 43 44 44 40 37 39
38 38 39 36 37 39 38 38 43 46 45 43 40 38 38 38 40 42 44 45 46 47 44 44 44 45 45 43 45 48 50 46 44 42 41 41 41 41 40 38 38 38 37 39
44 42 43 44 43 39 37 40 42 38 42 46 40 40 38 39 36 36 37 39 40 40 41 42 45 46 46 47 48 46 41 41 42 40 39 40 38 36 37 36 36 38 41 44
47 45 45 44 45 49 47 41 36 43 47 43 44 41 40 42 41 41 43 42 39 38 42 45 47 47 47 44 40 38 38 39 39 38 38 34 33 34 36 35 39 40 41 41
42 48 47 45 46 46 44 47 45 41 41 45 44 39 45 47 49 50 50 51 50 48 48 48 47 46 39 37 38 35 35 35 33 32 32 32 33 35 38 38 41 40 42 42
42 44 49 50 52 47 39 42 44 40 40 41 41 39 41 42 44 47 48 46 46 47 42 42 40 36 35 36 30 31 30 25 22 27 29 32 36 37 38 40 37 41 42 38
42 41 40 44 48 46 39 37 42 44 41 45 46 48 48 48 47 46 47 45 42 39 39 37 36 38 37 26 24 22 19 23 28 31 32 33 36 38 37 39 39 39 37 41
43 41 39 39 37 35 36 39 39 40 41 43 46 44 43 44 47 36 34 39 42 42 40 39 39 36 23 22 21 24 27 29 30 33 33 33 34 33 36 37 37 38 42 47
40 43 43 41 40 38 40 41 41 36 33 31 34 36 35 36 34 33 37 39 39 35 29 27 23 19 19 23 22 27 25 26 29 30 32 34 36 38 37 37 38 42 45 48
45 43 41 46 46 44 43 42 41 38 35 33 32 32 31 30 29 29 27 31 29 23 27 27 24 25 25 23 20 22 24 29 30 31 34 36 37 38 39 42 44 47 49 51
49 51 46 43 44 48 48 47 45 43 41 39 38 34 33 31 30 28 30 30 29 29 31 34 28 28 27 26 26 28 30 32 34 35 38 39 41 43 45 46 49 52 54 56
54 52 51 47 47 49 52 53 53 52 49 46 44 39 36 37 34 31 30 30 31 32 32 34 35 33 31 30 32 32 33 34 38 41 43 44 46 46 48 51 55 57 58 61
55 55 55 52 51 53 53 55 57 56 50 51 50 40 42 42 41 37 37 37 38 41 40 40 37 37 36 35 37 38 39 40 41 43 46 48 50 52 53 55 55 58 62 65
48 51 52 53 49 50 55 51 55 53 53 52 46 42 42 43 41 41 41 39 40 41 44 44 42 42 43 43 44 44 43 45 45 46 47 48 52 55 56 58 59 60 63 64
Wind_Direction
220 221 225 218 220 223 224 235 227 225 225 230 225 222 224 223 221 224 227 229 228 231 240 243 247 252 257 259 263 270 277 281 286 290 292 297 298 296 298 302 309 314 315 311
211 219 218 220 224 225 221 214 213 218 223 232 221 223 227 226 226 224 225 228 230 236 242 244 245 245 249 256 263 269 276 284 288 290 293 297 299 301 304 307 311 313 311 308
211 220 218 219 227 224 213 211 208 216 222 227 225 226 226 225 223 228 228 231 235 237 236 239 242 246 249 257 265 271 276 282 285 287 293 295 300 303 307 309 309 309 307 305
211 214 217 208 207 200 206 214 214 215 221 226 224 230 224 230 226 225 227 232 230 231 233 238 246 250 259 268 271 275 277 277 284 289 291 297 300 303 307 309 308 306 303 303
223 218 211 211 211 216 221 217 221 226 224 225 225 230 224 226 226 231 235 235 232 230 241 250 256 261 265 270 276 282 282 283 285 287 291 296 300 303 305 306 306 304 302 301
217 218 217 219 215 213 216 217 216 221 220 227 226 230 222 228 234 231 230 234 237 245 253 258 265 266 271 278 280 283 283 284 285 286 290 295 298 300 301 302 302 300 299 299
210 211 211 214 214 215 218 216 215 216 218 223 223 228 228 223 231 229 233 240 246 253 258 262 266 271 274 277 278 279 280 283 284 288 292 296 297 297 299 299 298 297 296 297
208 203 202 213 219 223 224 220 225 224 222 223 225 228 230 223 228 232 236 241 246 251 258 264 270 273 275 274 276 276 277 280 283 286 291 296 296 297 298 296 295 294 295 296
210 209 209 211 216 219 225 227 227 225 229 229 232 231 230 225 230 233 239 246 250 254 259 265 270 274 272 272 273 276 277 278 282 287 291 296 296 294 292 292 292 293 294 297
215 219 219 213 214 218 219 225 227 229 228 229 228 225 230 233 232 236 238 240 245 252 257 262 266 267 268 273 276 277 278 282 286 288 290 294 293 290 289 290 291 293 295 295
238 225 223 224 221 222 218 216 221 226 230 232 230 231 231 238 238 237 242 245 250 253 257 261 262 261 268 271 272 275 278 282 284 288 290 290 288 288 290 290 290 290 291 291
239 226 225 228 232 233 231 226 223 231 231 234 235 236 240 243 247 251 251 252 251 255 257 258 258 261 269 271 272 275 282 286 287 290 288 286 285 285 286 286 288 288 288 290
233 233 237 235 229 225 227 222 228 234 229 227 231 229 234 241 246 252 253 255 256 256 255 258 258 260 267 269 279 284 285 286 290 284 283 282 284 284 286 286 284 285 287 290
225 226 227 230 234 234 230 228 234 238 233 232 233 235 246 248 254 258 258 257 256 257 257 255 256 259 268 275 279 282 287 288 285 281 281 283 282 282 282 281 284 290 293 290
213 218 227 231 233 233 230 231 235 236 236 240 241 243 247 253 250 255 260 257 255 256 256 256 258 264 272 277 282 283 282 282 281 280 279 279 281 280 279 281 286 286 288 290
217 219 223 227 231 231 236 236 237 237 237 235 236 238 241 246 251 255 256 257 256 254 254 256 263 272 275 279 279 278 277 277 277 277 277 278 277 275 279 281 282 286 287 290
221 218 224 225 226 232 234 238 244 248 246 245 248 252 249 247 251 253 256 257 256 256 260 267 270 273 276 274 273 272 271 274 274 273 274 275 274 277 278 283 288 291 293 295
218 221 225 225 226 228 232 231 235 237 239 247 248 248 249 244 241 245 251 256 258 261 268 269 270 270 268 269 270 266 266 266 265 267 270 270 273 277 284 289 290 292 296 294
222 225 227 230 232 231 231 231 233 234 234 238 239 240 243 247 246 252 253 258 263 264 261 260 261 263 263 260 250 254 262 264 265 269 272 277 280 286 290 293 296 297 293 295
227 227 228 230 231 230 225 234 239 240 237 243 243 246 249 253 253 263 258 255 256 258 255 254 257 257 238 230 245 255 258 263 267 268 272 279 284 288 291 289 291 292 294 300
224 229 233 234 236 234 236 235 240 240 234 238 241 243 247 252 253 251 256 257 257 256 249 241 230 217 229 240 252 256 260 260 261 268 275 281 284 285 287 288 288 289 293 298
229 226 231 233 232 233 235 235 232 234 229 232 237 239 245 248 251 249 243 248 241 229 234 227 230 245 256 252 255 256 255 258 264 271 276 279 283 287 286 283 284 288 292 296
230 228 225 224 228 233 234 233 235 236 237 239 242 240 238 237 238 238 237 239 239 229 225 232 237 243 243 245 249 252 258 262 264 267 272 277 280 281 283 287 291 292 294 296
227 225 222 224 224 226 232 238 239 241 243 241 240 238 239 238 238 237 238 239 237 229 230 231 230 230 236 245 248 256 260 263 265 267 271 274 278 281 285 287 291 292 294 295
232 228 225 222 225 226 226 233 239 243 247 244 243 239 236 235 236 239 239 241 240 233 238 236 236 238 238 245 251 258 262 264 267 271 274 277 280 285 290 292 293 294 294 295
250 245 239 227 225 225 222 228 233 239 245 246 244 245 239 239 236 234 236 238 240 237 237 239 241 243 245 249 252 257 265 269 274 278 281 284 286 290 293 294 294 293 295 296